| time (UTC) | temp F | wind direction | speed knots | gust knots | rain 1hr in | rain 24hr in | rain mn in | humidity % | barometer mb |
| 20260831094523 | 73 | 175 | 1.7 | 3.5 | 0.00 | 0.00 | 0.00 | 88 | 1006.9 |
| 20260831093023 | 73 | 178 | 2.6 | 4.3 | 0.00 | 0.00 | 0.00 | 87 | 1006.7 |
| 20260831091522 | 73 | 180 | 3.5 | 5.2 | 0.00 | 0.00 | 0.00 | 87 | 1006.8 |
| 20260831090020 | 74 | 182 | 3.5 | 7.0 | 0.00 | 0.00 | 0.00 | 87 | 1006.7 |
| 20260831084523 | 73 | 186 | 2.6 | 5.2 | 0.00 | 0.00 | 0.00 | 86 | 1006.7 |
| 20260831083019 | 74 | 167 | 3.5 | 5.2 | 0.00 | 0.00 | 0.00 | 86 | 1006.7 |
| 20260831081521 | 74 | 164 | 3.5 | 6.1 | 0.00 | 0.00 | 0.00 | 85 | 1006.6 |
| 20260831080028 | 74 | 161 | 3.5 | 5.2 | 0.00 | 0.00 | 0.00 | 85 | 1006.5 |
| 20260831074514 | 74 | 175 | 1.7 | 4.3 | 0.00 | 0.00 | 0.00 | 84 | 1006.7 |
| 20260831073013 | 74 | 167 | 3.5 | 7.0 | 0.00 | 0.00 | 0.00 | 84 | 1006.6 |
| 20260831071511 | 74 | 167 | 3.5 | 7.8 | 0.00 | 0.00 | 0.00 | 84 | 1006.6 |
| 20260831070013 | 74 | 170 | 1.7 | 7.8 | 0.00 | 0.00 | 0.00 | 83 | 1006.8 |
| 20260831064508 | 74 | 161 | 4.3 | 9.6 | 0.00 | 0.00 | 0.00 | 83 | 1007.0 |
| 20260831063007 | 74 | 165 | 4.3 | 7.8 | 0.00 | 0.00 | 0.00 | 83 | 1007.2 |
| 20260831061502 | 74 | 173 | 4.3 | 7.8 | 0.00 | 0.00 | 0.00 | 82 | 1007.3 |
| 20260831060058 | 75 | 171 | 3.5 | 7.8 | 0.00 | 0.00 | 0.00 | 82 | 1007.5 |
| 20260831054554 | 75 | 182 | 4.3 | 8.7 | 0.00 | 0.00 | 0.00 | 82 | 1007.5 |
| 20260831053050 | 75 | 172 | 5.2 | 8.7 | 0.00 | 0.00 | 0.00 | 82 | 1007.7 |
| 20260831051555 | 75 | 145 | 4.3 | 7.0 | 0.00 | 0.00 | 0.00 | 81 | 1008.0 |
| 20260831050042 | 75 | 156 | 2.6 | 7.0 | 0.00 | 0.00 | 0.00 | 81 | 1008.3 |
| 20260831044540 | 75 | 172 | 2.6 | 6.1 | 0.00 | 0.00 | 0.00 | 81 | 1008.2 |
| 20260831043039 | 75 | 163 | 3.5 | 6.1 | 0.00 | 0.00 | 0.00 | 81 | 1008.3 |
| 20260831041539 | 75 | 177 | 0.9 | 7.8 | 0.00 | 0.00 | 0.00 | 81 | 1008.3 |
| 20260831040039 | 75 | 161 | 2.6 | 7.0 | 0.00 | 0.00 | 0.00 | 80 | 1008.3 |
| 20260831034546 | 75 | 182 | 4.3 | 6.1 | 0.00 | 0.00 | 0.00 | 80 | 1008.1 |
| 20260831033038 | 76 | 173 | 5.2 | 9.6 | 0.00 | 0.00 | 0.00 | 79 | 1008.2 |
| 20260831031538 | 76 | 149 | 5.2 | 7.8 | 0.00 | 0.00 | 0.00 | 78 | 1008.2 |
| 20260831030037 | 76 | 170 | 6.1 | 12.2 | 0.00 | 0.00 | 0.00 | 77 | 1007.9 |
| 20260831024539 | 77 | 168 | 4.3 | 8.7 | 0.00 | 0.00 | 0.00 | 76 | 1008.0 |
| 20260831023036 | 77 | 148 | 4.3 | 8.7 | 0.00 | 0.00 | 0.00 | 75 | 1008.1 |
| 20260831021539 | 78 | 178 | 7.0 | 13.9 | 0.00 | 0.00 | 0.00 | 74 | 1008.1 |
| 20260831020035 | 78 | 166 | 5.2 | 9.6 | 0.00 | 0.00 | 0.00 | 72 | 1008.2 |
| 20260831014534 | 79 | 153 | 4.3 | 8.7 | 0.00 | 0.00 | 0.00 | 71 | 1008.2 |
| 20260831013034 | 80 | 162 | 8.7 | 13.0 | 0.00 | 0.00 | 0.00 | 70 | 1008.2 |
| 20260831011543 | 80 | 164 | 8.7 | 17.4 | 0.00 | 0.00 | 0.00 | 68 | 1007.9 |
| 20260831010039 | 82 | 150 | 7.0 | 17.4 | 0.00 | 0.00 | 0.00 | 64 | 1007.7 |
| 20260831004532 | 83 | 172 | 10.4 | 15.6 | 0.00 | 0.00 | 0.00 | 62 | 1007.5 |
| 20260831003036 | 84 | 140 | 4.3 | 7.0 | 0.00 | 0.00 | 0.00 | 63 | 1007.5 |
| 20260831001531 | 84 | 164 | 4.3 | 9.6 | 0.00 | 0.00 | 0.00 | 61 | 1007.0 |
| 20260831000032 | 85 | 169 | 5.2 | 9.6 | 0.00 | 0.00 | 0.00 | 62 | 1007.0 |
| 20260830234538 | 86 | 172 | 6.1 | 10.4 | 0.00 | 0.00 | 0.00 | 63 | 1006.9 |
| 20260830233030 | 86 | 169 | 4.3 | 13.9 | 0.00 | 0.00 | 0.00 | 64 | 1007.0 |
| 20260830231530 | 86 | 155 | 7.0 | 13.9 | 0.00 | 0.00 | 0.00 | 63 | 1007.0 |
| 20260830230028 | 86 | 178 | 4.3 | 15.6 | 0.00 | 0.00 | 0.00 | 63 | 1007.1 |
| 20260830224528 | 87 | 153 | 1.7 | 4.3 | 0.00 | 0.00 | 0.00 | 65 | 1006.9 |
| 20260830223027 | 87 | 107 | 1.7 | 5.2 | 0.00 | 0.00 | 0.00 | 66 | 1006.8 |
| 20260830221540 | 86 | 86 | 2.6 | 7.0 | 0.00 | 0.00 | 0.00 | 66 | 1006.7 |
| 20260830220026 | 87 | 78 | 1.7 | 9.6 | 0.00 | 0.00 | 0.00 | 65 | 1007.0 |
| 20260830214523 | 86 | 146 | 0.9 | 6.1 | 0.00 | 0.00 | 0.00 | 66 | 1007.1 |
| 20260830213023 | 86 | 104 | 1.7 | 7.0 | 0.00 | 0.00 | 0.00 | 65 | 1007.1 |
| 20260830211521 | 85 | 82 | 2.6 | 12.2 | 0.00 | 0.00 | 0.00 | 67 | 1007.3 |
| 20260830210019 | 86 | 99 | 2.6 | 8.7 | 0.00 | 0.00 | 0.00 | 65 | 1007.5 |
| 20260830204518 | 85 | 157 | 2.6 | 7.8 | 0.00 | 0.00 | 0.00 | 66 | 1007.6 |
| 20260830203016 | 86 | 115 | 3.5 | 7.8 | 0.00 | 0.00 | 0.00 | 63 | 1007.8 |
| 20260830201514 | 86 | 106 | 2.6 | 8.7 | 0.00 | 0.00 | 0.00 | 65 | 1008.0 |
| 20260830200031 | 85 | 117 | 3.5 | 8.7 | 0.00 | 0.00 | 0.00 | 66 | 1007.9 |
| 20260830194512 | 85 | 175 | 4.3 | 10.4 | 0.00 | 0.00 | 0.00 | 65 | 1007.9 |
| 20260830193011 | 85 | 28 | 2.6 | 11.3 | 0.00 | 0.00 | 0.00 | 66 | 1008.0 |
| 20260830191508 | 85 | 56 | 3.5 | 8.7 | 0.00 | 0.00 | 0.00 | 66 | 1007.8 |
| 20260830190013 | 84 | 44 | 3.5 | 11.3 | 0.00 | 0.00 | 0.00 | 67 | 1008.0 |
| 20260830184619 | 83 | 174 | 3.5 | 11.3 | 0.00 | 0.00 | 0.00 | 68 | 1008.1 |
| 20260830184501 | 83 | 130 | 4.3 | 11.3 | 0.00 | 0.00 | 0.00 | 67 | 1008.1 |
| 20260830183111 | 82 | 153 | 3.5 | 8.7 | 0.00 | 0.00 | 0.00 | 69 | 1008.6 |
| 20260830181556 | 82 | 148 | 4.3 | 9.6 | 0.00 | 0.00 | 0.00 | 70 | 1008.6 |
| 20260830180057 | 81 | 130 | 5.2 | 8.7 | 0.00 | 0.00 | 0.00 | 71 | 1008.7 |
| 20260830174604 | 80 | 200 | 3.5 | 8.7 | 0.00 | 0.00 | 0.00 | 72 | 1008.8 |
| 20260830173047 | 79 | 84 | 1.7 | 7.8 | 0.00 | 0.00 | 0.00 | 75 | 1009.1 |
| 20260830171547 | 78 | 163 | 3.5 | 6.1 | 0.00 | 0.00 | 0.00 | 74 | 1009.4 |
| 20260830170045 | 79 | 146 | 2.6 | 7.8 | 0.00 | 0.00 | 0.00 | 74 | 1009.2 |
| 20260830164544 | 79 | 65 | 2.6 | 7.0 | 0.00 | 0.00 | 0.00 | 74 | 1009.2 |
| 20260830163041 | 77 | 183 | 1.7 | 13.0 | 0.00 | 0.00 | 0.00 | 76 | 1009.1 |
| 20260830161547 | 78 | 61 | 1.7 | 7.0 | 0.00 | 0.00 | 0.00 | 76 | 1008.6 |
| 20260830160042 | 77 | 199 | 0.9 | 9.6 | 0.00 | 0.00 | 0.00 | 77 | 1008.4 |
| 20260830154537 | 77 | 22 | 2.6 | 7.8 | 0.00 | 0.00 | 0.00 | 76 | 1008.4 |
| 20260830153034 | 76 | 91 | 2.6 | 9.6 | 0.00 | 0.00 | 0.00 | 77 | 1008.5 |
| 20260830151533 | 76 | 90 | 5.2 | 8.7 | 0.00 | 0.00 | 0.00 | 76 | 1008.5 |
| 20260830150031 | 76 | 108 | 3.5 | 7.0 | 0.00 | 0.00 | 0.00 | 77 | 1008.6 |
| 20260830144531 | 74 | 59 | 0.9 | 7.8 | 0.00 | 0.00 | 0.00 | 82 | 1008.5 |
| 20260830143022 | 73 | 32 | 1.7 | 7.0 | 0.00 | 0.00 | 0.00 | 83 | 1008.5 |
| 20260830141520 | 72 | 52 | 1.7 | 5.2 | 0.00 | 0.00 | 0.00 | 83 | 1008.6 |
| 20260830140022 | 72 | 40 | 1.7 | 4.3 | 0.00 | 0.00 | 0.00 | 84 | 1008.9 |
| 20260830134527 | 72 | 40 | 1.7 | 5.2 | 0.00 | 0.00 | 0.00 | 84 | 1009.2 |
| 20260830133019 | 71 | 83 | 1.7 | 6.1 | 0.00 | 0.00 | 0.00 | 86 | 1009.0 |
| 20260830131516 | 69 | 75 | 0.9 | 7.8 | 0.00 | 0.00 | 0.00 | 87 | 1008.7 |
| 20260830130015 | 69 | 63 | 2.6 | 6.1 | 0.00 | 0.00 | 0.00 | 88 | 1008.6 |
| 20260830124517 | 69 | 96 | 1.7 | 5.2 | 0.00 | 0.00 | 0.00 | 88 | 1008.6 |
| 20260830123009 | 69 | 63 | 1.7 | 4.3 | 0.00 | 0.00 | 0.00 | 88 | 1008.6 |
| 20260830121508 | 68 | 67 | 0.9 | 7.0 | 0.00 | 0.00 | 0.00 | 88 | 1008.5 |
| 20260830120003 | 68 | 74 | 1.7 | 4.3 | 0.00 | 0.00 | 0.00 | 88 | 1008.4 |
| 20260830114501 | 68 | 47 | 0.9 | 4.3 | 0.00 | 0.14 | 0.00 | 88 | 1008.4 |
| 20260830113106 | 68 | 39 | 1.7 | 4.3 | 0.00 | 0.14 | 0.00 | 88 | 1008.2 |
| 20260830111559 | 68 | 82 | 1.7 | 4.3 | 0.00 | 0.14 | 0.00 | 88 | 1008.3 |
| 20260830110059 | 68 | 61 | 1.7 | 5.2 | 0.00 | 0.14 | 0.00 | 88 | 1008.5 |
| 20260830104606 | 68 | 45 | 1.7 | 5.2 | 0.00 | 0.26 | 0.00 | 87 | 1008.7 |
| 20260830103056 | 68 | 71 | 1.7 | 4.3 | 0.00 | 0.26 | 0.00 | 87 | 1008.5 |
| 20260830101555 | 68 | 76 | 0.0 | 1.7 | 0.00 | 0.26 | 0.00 | 87 | 1008.8 |
| 20260830100054 | 69 | 76 | 0.0 | 2.6 | 0.00 | 0.26 | 0.00 | 87 | 1008.6 |